Probability
0 0 0 0 0 0 0 0 0 0 0 0 0 0 0 1 3 6 8 9 14 23 32 41 56 76 89 95 98 99 98 98 98 99 100 98 96 93 87 79 71 65 62 61
0 0 0 0 0 0 0 0 0 0 0 0 0 0 0 2 5 8 12 17 26 34 42 52 65 81 92 95 97 97 98 98 99 99 99 97 93 88 81 72 64 57 54 53
0 0 0 0 0 0 0 0 0 0 0 0 0 0 1 5 9 16 25 35 44 50 56 63 71 82 91 95 95 95 95 97 98 98 96 93 87 80 71 61 52 45 42 41
0 0 0 0 0 0 0 0 0 0 0 0 0 0 2 6 14 29 47 58 62 63 66 68 71 78 86 90 92 92 92 93 94 95 93 87 80 71 61 51 41 34 30 28
0 0 0 0 0 0 0 0 0 0 0 0 0 0 3 10 26 48 66 72 70 66 64 64 65 70 77 82 85 86 86 86 86 85 83 76 67 59 52 43 33 24 18 16
0 0 0 0 0 0 0 0 0 0 0 0 0 1 10 28 50 69 76 72 64 57 52 49 50 55 63 68 71 73 72 70 69 68 65 58 51 46 42 34 24 14 9 8
0 0 0 0 0 0 0 0 0 0 0 0 0 6 28 57 75 79 73 61 49 41 34 30 30 35 41 46 48 49 49 47 46 46 44 39 34 32 29 23 14 7 3 3
0 0 0 0 0 0 0 0 0 0 0 0 4 20 52 78 85 76 61 45 32 24 19 15 16 18 20 22 22 23 23 25 25 25 23 21 19 17 15 12 7 3 1 1
0 0 0 0 0 0 0 0 0 0 0 0 8 34 65 83 80 65 46 30 18 11 8 6 6 7 7 7 7 7 8 10 11 10 9 8 7 6 5 4 2 1 0 0
0 0 0 0 0 0 0 0 0 0 0 0 7 28 56 74 70 51 32 18 8 4 2 2 2 2 2 2 1 1 2 3 3 3 3 2 2 2 1 1 0 0 0 0
0 0 0 0 0 0 0 0 0 0 0 0 4 18 43 62 56 35 19 9 3 1 0 0 0 0 0 0 0 0 0 0 1 1 1 0 1 1 0 0 0 0 0 0
0 0 0 0 0 0 0 0 0 0 0 0 4 21 46 55 39 20 9 3 0 0 0 0 0 0 0 0 0 0 0 0 0 0 0 0 0 0 0 0 0 0 0 0
0 0 0 0 0 0 0 0 0 0 0 0 6 27 47 45 26 10 3 0 0 0 0 0 0 0 0 0 0 0 0 0 0 0 0 0 0 0 0 0 0 0 0 0
0 0 0 0 0 0 0 0 0 0 0 1 8 26 38 31 16 5 1 0 0 0 0 0 0 0 0 0 0 0 0 0 0 0 0 0 0 0 0 0 0 0 0 0
0 0 0 0 0 0 0 1 1 1 3 5 13 26 30 22 11 3 0 0 0 0 0 0 0 0 0 0 0 0 0 0 0 0 0 0 0 0 0 0 0 0 0 0
0 0 0 0 0 0 0 2 4 7 10 12 18 26 23 14 6 1 0 0 0 0 0 0 0 0 0 0 0 0 0 0 0 0 0 0 0 0 0 0 0 0 0 0
0 0 0 0 0 0 0 2 7 14 17 18 20 20 14 6 2 0 0 0 0 0 0 0 0 0 0 0 0 0 0 0 0 0 0 0 0 0 0 0 0 0 0 0
0 0 0 0 0 0 0 1 5 11 16 17 14 10 5 2 0 0 0 0 0 0 0 0 0 0 0 0 0 0 0 0 0 0 0 0 0 0 0 0 0 0 0 0
0 0 0 0 0 0 0 0 1 4 7 8 7 3 1 0 0 0 0 0 0 0 0 0 0 0 0 0 0 0 0 0 0 0 0 0 0 0 0 0 0 0 0 0
0 0 0 0 0 0 0 0 0 0 1 1 1 0 0 0 0 0 0 0 0 0 0 0 0 0 0 0 0 0 0 0 0 0 0 0 0 0 0 0 0 0 0 0
0 0 0 0 0 0 0 0 0 0 0 0 0 0 0 0 0 0 0 0 0 0 0 0 0 0 0 0 0 0 0 0 0 0 0 0 0 0 0 0 0 0 0 0
0 0 0 0 0 0 0 0 0 0 0 0 0 0 0 0 0 0 0 0 0 0 0 0 0 0 0 0 0 0 0 0 0 0 0 0 0 0 0 0 0 0 0 0
0 0 0 0 0 0 0 0 0 0 0 0 0 0 0 0 0 0 0 0 0 0 0 0 0 0 0 0 0 0 0 0 0 0 0 0 0 0 0 0 0 0 0 0
0 0 0 0 0 0 0 0 0 0 0 0 0 0 0 0 0 0 0 0 0 0 0 0 0 0 0 0 0 0 0 0 0 0 0 0 0 0 0 0 0 0 0 0
0 0 0 0 0 0 0 0 0 0 0 0 0 0 0 0 0 0 0 0 0 0 0 0 0 0 0 0 0 0 0 0 0 0 0 0 0 0 0 0 0 0 0 0
0 0 0 0 0 0 0 0 0 0 0 0 0 0 0 0 0 0 0 0 0 0 0 0 0 0 0 0 0 0 0 0 0 0 0 0 0 0 0 0 0 0 0 0
Wind_Speed
13 13 14 16 17 18 18 14 14 13 11 15 14 14 13 9 9 8 7 6 6 5 4 4 3 7 9 9 10 11 10 10 9 8 8 7 5 5 4 4 5 5 5 4
13 17 17 16 16 17 19 17 14 10 8 7 9 12 13 12 8 6 3 3 5 7 9 8 6 6 6 7 9 9 9 10 9 7 5 5 5 4 4 4 5 4 4 4
19 14 17 17 17 15 15 15 14 10 6 7 8 13 14 13 9 6 4 7 10 11 12 11 10 7 6 5 7 9 8 9 9 8 6 5 5 4 4 4 4 4 5 4
18 18 14 15 17 15 13 14 14 14 10 8 11 11 14 15 11 6 7 10 13 14 14 14 12 10 9 7 5 6 7 8 8 8 8 8 6 5 5 5 5 6 6 6
16 17 16 14 15 14 13 13 14 14 12 12 13 14 13 14 14 8 11 14 15 15 15 16 15 13 12 11 9 9 9 8 7 7 8 7 6 5 6 7 8 7 7 7
16 15 15 15 13 13 12 13 13 13 12 16 16 15 10 4 10 15 15 16 15 15 15 15 15 14 14 14 13 12 12 12 10 9 8 7 8 8 9 8 7 7 6 7
15 15 14 12 13 14 13 11 9 11 12 15 15 16 3 10 17 19 18 16 15 15 14 14 14 14 14 15 14 13 14 14 12 12 11 10 9 9 9 8 7 7 6 6
13 15 15 14 14 13 14 15 12 10 10 12 17 14 9 18 19 19 18 17 15 14 13 13 13 12 13 14 14 14 15 15 14 14 12 11 10 8 8 9 8 8 7 7
8 11 14 15 15 16 15 15 17 16 17 14 8 8 12 17 18 18 18 17 16 14 13 13 12 12 13 13 13 14 15 14 14 13 13 13 12 11 10 10 9 8 7 7
8 9 9 13 13 16 16 14 9 11 12 14 8 9 11 18 17 17 17 16 15 13 13 12 11 11 12 12 13 13 14 14 13 12 11 11 11 11 10 10 10 9 8 7
7 7 6 10 14 15 15 15 12 10 12 13 8 2 4 14 15 16 16 15 14 14 13 11 11 10 11 11 12 12 13 14 13 13 12 12 11 11 11 10 10 8 7 7
4 5 6 8 9 11 14 15 13 10 11 11 8 3 9 15 16 17 17 15 14 13 12 12 11 11 12 12 12 12 12 13 13 12 12 12 11 10 10 10 9 8 7 6
7 5 5 6 6 7 10 12 13 11 9 9 9 6 12 16 16 16 16 15 13 12 12 12 11 11 12 12 12 12 12 12 12 12 12 11 11 10 10 9 8 8 7 6
5 7 5 2 5 7 9 9 9 10 9 8 3 9 11 14 15 15 15 14 13 12 12 12 11 11 11 11 11 11 11 11 11 12 11 11 10 9 9 8 7 6 5 5
6 7 5 3 7 5 6 8 8 7 6 3 4 10 11 12 14 14 14 14 14 13 12 12 11 10 10 10 10 10 11 10 10 10 10 9 8 7 7 6 6 5 5 5
6 8 9 6 4 3 3 4 5 2 5 6 13 12 12 14 14 13 13 13 14 13 12 11 11 10 9 9 9 9 9 8 8 8 8 7 7 6 5 5 5 5 5 5
7 8 8 8 4 4 1 5 8 11 12 8 9 10 14 14 13 12 12 13 13 12 11 10 9 8 8 7 7 8 7 7 7 6 6 6 6 5 5 5 5 5 4 4
6 7 6 7 6 4 5 7 10 12 14 15 16 15 14 15 14 12 11 12 11 10 9 9 7 7 7 7 7 6 6 6 6 6 5 5 4 5 4 5 5 4 3 3
2 5 6 5 5 2 6 8 7 7 11 12 15 16 16 17 16 11 10 10 10 9 8 7 7 7 6 6 5 5 5 5 5 5 5 5 5 4 4 4 3 2 2 2
2 3 5 6 5 3 4 5 4 4 7 9 13 13 13 10 6 6 8 10 9 9 8 7 7 7 6 5 4 4 4 4 4 4 4 4 4 3 3 3 2 2 2 2
5 4 5 6 2 6 6 8 6 2 5 7 9 9 7 5 9 12 11 10 9 9 8 7 7 6 5 4 3 3 4 4 4 4 4 3 2 1 1 2 2 2 2 2
6 6 6 6 3 4 11 8 8 7 8 10 11 12 14 16 16 13 12 10 10 9 8 7 6 5 4 3 2 3 4 3 3 3 2 2 2 3 3 2 2 2 3 3
4 6 5 6 5 6 9 10 9 9 10 11 12 13 15 16 14 13 12 10 9 8 7 6 6 5 4 3 3 4 3 3 2 2 1 1 2 2 2 2 3 2 2 3
3 3 2 4 7 8 9 10 10 10 10 11 12 13 14 15 14 13 11 9 8 7 6 5 6 6 5 4 4 4 3 3 3 2 2 2 2 2 1 1 2 2 3 5
4 2 2 4 7 8 9 9 10 10 10 11 12 12 14 15 14 12 10 9 7 7 6 5 5 5 5 5 3 3 2 2 2 2 3 3 3 2 1 0 2 3 5 5
4 4 3 3 4 5 8 8 9 9 10 11 12 13 13 13 13 12 10 8 7 7 6 5 5 5 5 4 2 2 1 2 2 3 3 4 3 2 2 1 3 6 6 8
Wind_Direction
207 222 226 226 227 246 262 263 246 235 196 193 215 231 241 219 199 209 204 187 172 134 97 55 79 129 139 142 151 161 169 161 161 165 171 174 168 146 129 116 118 118 113 113
214 224 236 241 237 239 257 269 265 240 179 188 219 239 242 242 211 196 210 123 78 57 48 48 40 73 118 140 153 158 167 165 167 162 162 159 146 130 116 105 102 103 103 108
228 226 225 243 250 241 247 257 262 256 205 191 235 247 245 243 224 180 130 81 61 51 45 38 35 36 72 108 152 165 168 164 163 153 141 133 117 113 115 112 98 86 91 90
231 241 234 230 241 241 244 250 263 268 253 225 215 241 229 226 216 169 105 75 61 49 44 37 32 28 39 53 82 121 138 144 146 144 147 149 148 146 130 117 103 88 77 77
230 229 233 238 239 240 245 251 250 257 262 262 243 244 244 214 196 149 98 79 67 56 47 40 32 30 36 45 57 72 79 88 107 125 131 131 128 117 109 104 101 91 78 73
245 231 230 234 240 245 245 252 251 247 249 245 244 249 246 232 165 119 95 81 71 61 52 46 40 37 39 44 51 66 71 69 75 85 94 103 107 108 109 108 106 96 85 76
235 232 227 227 231 232 230 233 231 223 228 240 232 235 211 89 99 106 101 88 76 66 57 49 43 42 44 49 52 62 69 67 69 76 77 81 87 94 97 100 98 97 92 87
225 222 214 218 227 228 219 229 237 236 231 240 225 217 123 106 103 103 100 93 82 71 64 58 53 52 52 53 57 63 68 68 67 70 70 71 75 79 80 81 87 88 89 90
253 236 201 209 218 231 221 224 245 265 280 281 246 123 114 116 114 111 105 96 86 78 71 65 60 59 60 60 61 66 70 70 69 71 73 72 73 77 80 80 81 86 93 97
284 277 217 197 207 223 238 227 232 251 267 275 257 164 164 152 135 122 111 103 96 89 82 75 69 67 67 68 67 67 70 72 71 71 73 77 75 76 78 79 78 81 81 83
275 277 248 206 205 215 221 232 235 247 256 265 274 39 97 139 130 121 110 104 100 94 87 80 76 73 72 73 73 73 73 73 73 73 74 74 75 76 77 79 79 80 82 82
286 284 280 261 235 240 229 227 228 240 254 267 276 84 96 112 115 114 109 103 98 94 90 86 81 76 73 72 72 73 75 77 79 78 77 76 76 75 77 79 79 79 77 76
332 293 272 269 256 245 247 237 235 234 253 262 266 112 96 103 106 108 108 106 103 98 92 86 81 76 74 73 71 70 71 73 76 78 76 74 73 72 73 72 70 70 71 67
294 290 294 261 281 288 277 274 260 244 243 255 266 127 118 113 115 113 110 108 104 98 93 88 82 77 72 69 69 69 68 69 73 75 74 72 71 71 70 69 66 65 64 64
329 299 297 213 241 271 311 305 285 269 277 289 115 123 122 118 116 117 115 112 106 98 90 85 82 77 74 73 70 68 66 65 69 75 77 76 78 77 74 69 63 58 51 55
330 310 308 279 235 260 273 306 293 327 37 78 93 88 102 108 109 113 115 112 106 100 94 88 85 83 78 76 77 77 75 73 75 77 80 78 76 73 70 70 62 55 47 41
321 322 312 299 310 299 347 22 44 51 43 57 89 108 117 110 108 112 113 109 106 104 98 92 88 86 85 81 82 83 82 81 82 81 80 77 73 66 58 59 58 49 43 42
316 322 305 292 296 287 78 55 65 69 62 76 95 109 109 104 96 92 100 108 107 106 104 101 99 94 92 93 91 90 93 92 88 82 76 73 70 67 61 55 50 42 32 25
320 312 302 302 300 79 55 21 19 65 76 90 107 112 115 113 97 80 85 99 106 107 107 106 107 106 103 99 100 99 95 93 91 85 76 62 53 48 49 46 39 30 9 6
281 274 284 305 317 34 47 346 352 91 90 96 117 129 140 143 112 113 112 108 107 106 109 109 108 107 104 103 109 111 106 99 91 85 72 61 47 36 37 26 7 0 342 347
328 306 299 306 331 78 4 336 326 0 95 108 115 125 127 92 107 126 125 118 115 113 113 114 112 111 114 119 125 117 107 93 88 88 82 67 33 0 53 6 338 325 330 337
341 346 358 350 10 49 4 27 51 87 103 103 103 103 103 107 115 123 125 122 121 120 120 121 121 120 121 127 129 108 91 86 89 86 81 55 358 342 27 359 331 330 329 319
19 25 7 36 68 81 59 75 90 101 102 102 106 112 118 122 125 126 125 124 126 128 132 135 132 124 120 110 95 91 87 80 79 74 40 355 337 330 331 325 326 345 350 346
84 66 42 88 105 99 90 88 86 88 96 106 115 122 125 126 128 128 128 130 134 135 137 138 131 119 110 98 86 83 72 51 32 6 351 316 297 284 282 307 342 17 14 9
359 345 30 98 122 114 97 94 95 96 101 107 111 118 126 129 132 133 133 135 135 133 130 127 121 115 109 103 94 86 75 43 5 335 315 303 292 287 260 139 48 47 65 58
35 31 27 74 103 116 114 105 108 111 113 116 118 119 127 130 130 131 132 132 131 127 125 119 115 111 112 112 102 74 36 359 335 322 314 305 299 301 306 140 121 74 103 112